Wind_Speed
1 0 1 0 0 0 0 1 2 3 4 4 4 5 6 7 7 8 7 7 7 8 9 9 10 10 10 10 10 10 10 9 8 8 6 6 6 5 5 5 4 4 4
1 1 1 1 0 1 1 2 3 3 4 5 5 6 6 7 8 8 8 8 8 9 9 9 10 10 10 10 10 10 10 10 9 8 7 7 6 6 6 6 5 4 5
2 2 2 2 1 1 1 2 2 3 4 5 6 6 7 8 8 8 8 9 9 9 10 10 10 10 10 11 10 10 10 10 10 10 9 8 7 7 7 6 5 5 6
2 2 2 2 1 1 1 2 2 2 4 5 6 7 7 8 9 9 9 10 10 9 10 10 10 10 10 11 10 10 10 9 10 10 9 9 8 8 8 7 6 6 6
3 3 3 3 2 1 1 2 3 3 4 5 6 7 8 8 9 9 10 10 10 10 10 10 11 10 10 11 10 10 10 10 9 9 10 9 9 9 9 8 7 7 7
3 3 3 3 2 2 1 2 3 3 4 5 6 7 8 9 9 10 10 10 10 10 11 11 11 11 11 11 11 11 11 10 10 9 9 10 10 10 10 9 9 8 8
4 4 4 3 2 2 2 2 2 3 4 5 6 7 9 9 10 10 10 10 11 11 11 12 12 12 11 11 11 11 11 11 11 10 10 9 10 11 11 10 10 10 10
5 4 4 3 2 2 1 2 2 3 4 5 6 8 9 9 10 10 10 11 11 11 12 12 13 12 12 12 12 11 12 12 11 11 11 10 10 11 11 11 11 11 11
5 5 4 3 2 2 1 2 2 3 4 5 7 8 8 9 9 9 10 11 11 12 12 12 12 12 12 12 12 11 11 12 12 11 11 11 11 11 11 11 12 11 12
6 5 4 3 3 2 2 2 2 3 4 6 7 7 8 8 9 10 10 11 12 12 12 12 12 12 12 12 11 11 10 10 11 12 12 12 12 12 12 12 12 12 12
6 5 4 3 3 2 2 2 2 3 4 5 7 7 8 9 10 10 11 12 12 12 12 12 11 11 11 11 11 11 11 10 10 12 12 12 12 12 13 12 12 13 13
6 5 4 4 3 2 2 3 3 4 5 6 7 8 9 10 10 11 11 12 12 12 12 12 11 10 10 10 10 10 10 10 10 11 11 12 13 13 13 13 13 13 14
6 6 5 4 3 3 3 3 3 4 5 6 7 8 10 10 10 11 12 12 12 12 12 11 11 10 9 9 9 9 9 10 10 10 11 11 12 12 13 14 14 13 13
7 6 5 4 3 3 4 4 4 4 5 7 8 8 10 10 11 11 12 12 12 12 11 10 10 9 9 9 8 8 8 9 10 10 11 11 12 12 13 14 14 14 14
7 6 5 5 4 4 4 4 4 5 5 6 7 8 10 11 11 12 12 12 12 12 11 11 10 9 9 8 7 7 8 8 9 10 11 12 12 13 13 14 15 15 15
8 7 6 5 5 4 4 4 4 5 5 6 8 9 10 11 11 11 12 12 12 12 11 10 10 9 8 7 7 7 7 8 9 10 11 12 13 14 14 14 14 15 16
9 8 7 6 5 5 5 5 5 5 6 7 8 9 10 10 11 11 12 12 12 12 11 10 9 9 8 7 7 6 6 7 8 9 11 12 12 14 14 14 15 15 15
9 8 7 6 5 5 5 5 5 6 6 7 8 8 9 10 11 11 11 12 12 12 11 10 9 8 8 7 7 6 6 7 7 9 10 11 12 13 14 15 15 15 15
10 9 8 6 6 5 5 5 6 6 6 6 7 8 9 10 11 11 11 12 12 12 11 10 9 8 8 7 7 6 6 6 7 8 9 10 10 12 13 15 15 15 16
10 9 8 7 6 5 5 5 5 5 5 6 7 7 9 10 10 11 11 11 11 11 11 10 10 9 8 7 7 6 5 5 6 7 8 9 10 11 13 14 15 15 15
10 9 8 7 5 4 4 4 4 4 5 5 6 7 9 10 10 11 11 11 11 11 11 11 10 10 9 7 7 6 5 5 5 6 6 8 9 10 12 13 15 16 15
10 9 8 6 5 4 3 3 3 4 5 5 6 7 9 9 10 10 11 11 11 11 11 11 11 10 10 8 7 6 6 5 5 5 6 7 8 10 11 12 14 15 16
10 9 8 6 5 4 3 2 3 3 4 5 6 7 8 9 10 10 11 10 10 11 12 12 11 11 10 9 8 7 6 6 5 5 5 6 8 9 10 12 13 15 16
10 9 8 6 5 3 3 3 3 3 4 5 6 7 8 9 10 10 11 11 11 12 12 12 12 11 10 9 9 8 7 6 5 5 5 5 7 9 10 11 13 15 17
10 9 8 6 5 4 3 4 3 4 4 5 6 7 8 9 9 10 11 11 12 12 12 13 12 12 11 10 9 8 7 6 5 4 4 4 5 7 9 11 12 14 16
11 9 8 7 5 4 4 4 3 3 4 5 6 7 8 8 9 10 11 11 12 12 12 13 13 12 12 11 10 9 8 7 6 5 3 3 4 6 7 9 11 13 14
Wind_Direction
174 136 135 137 131 133 41 4 3 359 357 352 347 342 338 334 327 322 317 309 302 297 294 293 292 289 283 281 279 276 273 267 264 265 267 261 257 254 248 244 236 226 213
181 158 165 188 232 283 332 0 5 359 357 351 348 344 340 333 329 324 320 312 304 298 295 292 291 289 284 281 280 278 272 267 259 260 260 255 252 248 242 238 236 228 215
196 187 187 191 212 272 323 353 353 355 356 352 351 346 342 336 333 327 323 316 309 304 301 297 292 288 285 282 280 275 271 266 255 256 256 252 248 245 241 238 233 228 217
207 205 193 194 213 251 314 325 329 355 1 354 353 349 344 339 334 330 324 319 313 309 305 301 296 291 286 283 280 276 271 268 256 252 251 247 244 241 240 239 233 230 223
201 200 200 202 224 251 293 315 326 343 348 349 349 345 341 336 332 329 325 320 314 309 307 304 300 295 288 283 279 275 270 268 260 252 247 245 243 241 240 236 232 231 226
188 193 197 204 232 246 277 313 325 335 342 343 343 340 335 331 329 326 323 319 314 310 307 305 301 295 289 282 278 274 268 264 259 254 249 246 243 240 238 234 231 228 224
179 186 188 196 212 236 273 313 326 335 339 341 339 336 332 329 327 325 323 319 315 311 308 303 299 295 292 286 280 273 266 261 255 251 249 247 243 238 236 232 229 225 221
186 188 188 199 213 225 268 302 321 328 333 337 335 334 333 330 326 323 322 321 317 313 310 305 299 294 291 285 279 274 266 259 253 249 247 245 243 239 236 231 230 222 218
191 191 196 197 207 230 262 294 318 331 333 334 335 335 335 333 330 326 323 320 318 315 310 306 303 296 290 284 277 274 268 259 254 248 246 243 241 237 234 231 229 224 219
192 193 197 198 208 230 263 294 311 327 333 336 338 338 339 338 334 330 327 324 321 317 313 308 304 297 290 283 278 274 270 261 253 248 245 243 239 235 230 227 223 222 218
192 197 203 203 211 233 266 289 304 318 329 335 338 338 338 336 334 333 332 328 324 321 317 312 307 300 291 284 279 274 268 263 255 248 245 241 238 232 227 225 223 221 222
193 199 203 204 215 239 264 282 294 310 323 331 333 333 334 334 334 334 334 332 328 324 319 314 309 303 296 288 281 274 265 261 255 248 243 239 235 230 224 224 224 225 224
195 198 203 208 228 246 260 269 285 304 321 329 333 335 336 335 334 333 332 331 329 325 322 318 313 308 300 294 286 277 265 257 254 248 241 237 235 230 224 223 224 223 222
196 200 202 211 231 250 256 266 285 302 319 326 331 334 336 336 335 333 332 330 329 328 327 325 320 315 308 299 290 281 270 258 254 247 241 237 236 233 226 225 223 224 222
201 203 204 210 229 247 260 278 294 301 310 321 329 334 335 335 335 334 332 332 331 331 330 329 325 321 313 303 292 282 274 266 257 248 242 239 236 231 226 224 223 225 223
202 204 210 220 235 251 266 279 292 297 303 316 326 331 332 334 335 335 334 335 335 334 333 331 329 327 320 311 300 286 275 269 259 249 244 239 237 231 226 225 225 224 223
202 206 215 225 235 252 266 278 293 299 305 314 322 328 332 334 336 338 338 339 340 339 337 336 333 333 328 317 306 296 281 271 261 251 246 241 237 232 228 227 225 224 223
205 207 216 224 235 251 262 273 289 300 307 315 323 328 333 338 340 341 342 343 344 344 342 340 337 335 332 323 311 299 287 276 265 255 247 241 236 230 227 225 225 224 222
206 209 217 227 238 250 258 269 285 298 307 318 326 330 337 341 343 344 344 346 347 348 348 346 343 338 335 331 322 308 292 278 270 261 250 241 234 229 226 226 225 223 221
210 214 220 229 238 247 256 266 281 301 316 322 327 333 340 343 345 346 348 349 350 351 351 350 349 345 341 339 333 324 307 288 277 267 251 240 235 231 227 227 226 223 221
212 218 221 226 233 244 256 267 288 311 323 329 333 339 344 346 347 349 351 352 353 354 354 354 354 352 347 342 339 332 325 311 290 275 255 241 236 233 229 226 223 222 220
211 215 217 220 228 242 252 269 297 316 327 333 337 341 344 347 350 353 355 355 356 357 358 358 357 357 354 347 341 336 327 320 303 275 257 247 238 232 229 225 220 219 219
207 212 216 219 224 237 252 274 301 318 332 338 341 343 347 350 353 357 1 1 360 0 1 0 0 359 357 354 347 341 332 321 312 286 263 251 241 233 229 226 221 219 218
202 207 211 216 221 234 253 270 293 314 329 338 342 345 350 354 357 359 1 2 2 2 2 3 4 2 360 359 356 350 342 331 323 308 280 259 245 236 229 226 221 217 216
205 207 210 218 222 234 250 267 288 309 323 331 338 342 348 353 356 359 1 3 4 4 4 5 6 5 3 3 2 359 355 348 338 332 307 268 251 241 234 231 222 218 215
206 209 214 218 225 237 250 261 281 306 320 326 332 339 346 351 353 354 358 1 4 5 6 7 8 8 7 6 7 5 4 1 353 348 335 288 261 250 242 236 226 222 218
Height
5877 5877 5877 5877 5878 5878 5878 5878 5878 5878 5878 5877 5877 5876 5876 5876 5876 5875 5875 5875 5874 5874 5874 5874 5874 5874 5875 5875 5875 5876 5877 5878 5879 5880 5881 5881 5882 5883 5884 5885 5886 5886 5887
5877 5877 5877 5877 5878 5878 5878 5878 5878 5878 5877 5877 5876 5876 5876 5875 5875 5875 5874 5873 5873 5873 5873 5873 5873 5873 5873 5873 5874 5874 5875 5876 5877 5878 5879 5880 5881 5882 5883 5884 5885 5885 5886
5876 5877 5877 5878 5878 5878 5878 5878 5877 5877 5877 5877 5876 5876 5875 5875 5874 5874 5873 5872 5872 5871 5871 5871 5871 5871 5871 5872 5872 5872 5873 5874 5875 5876 5878 5879 5880 5881 5882 5882 5884 5885 5886
5876 5877 5877 5878 5878 5878 5878 5878 5877 5877 5877 5877 5876 5875 5875 5874 5873 5872 5872 5871 5870 5870 5869 5869 5869 5870 5870 5870 5870 5871 5871 5872 5873 5874 5876 5877 5878 5879 5880 5881 5882 5884 5885
5876 5876 5877 5877 5877 5878 5878 5878 5877 5877 5877 5876 5876 5875 5874 5873 5872 5872 5871 5870 5869 5868 5868 5868 5867 5867 5868 5868 5868 5869 5869 5870 5871 5872 5874 5875 5876 5877 5879 5880 5881 5882 5883
5876 5876 5877 5877 5877 5878 5878 5877 5877 5877 5876 5876 5875 5874 5873 5873 5872 5871 5870 5869 5868 5867 5866 5866 5865 5865 5865 5865 5866 5866 5867 5868 5869 5870 5872 5873 5874 5876 5877 5878 5879 5881 5882
5875 5876 5876 5877 5877 5877 5878 5877 5877 5877 5876 5875 5875 5874 5873 5872 5871 5870 5869 5867 5866 5865 5865 5864 5863 5863 5863 5863 5863 5864 5864 5866 5867 5868 5869 5871 5872 5873 5875 5876 5877 5879 5880
5875 5876 5876 5876 5877 5877 5877 5877 5877 5876 5876 5875 5874 5873 5872 5871 5870 5869 5867 5866 5865 5864 5863 5862 5861 5860 5860 5860 5861 5861 5862 5863 5864 5866 5867 5869 5870 5871 5872 5874 5875 5876 5878
5874 5875 5876 5876 5876 5877 5877 5876 5876 5876 5875 5874 5873 5872 5871 5870 5869 5868 5866 5865 5863 5862 5861 5860 5859 5858 5858 5858 5858 5859 5859 5860 5862 5863 5865 5866 5868 5869 5870 5872 5873 5875 5876
5874 5875 5875 5876 5876 5876 5876 5876 5876 5875 5874 5874 5873 5872 5871 5869 5868 5867 5865 5864 5862 5860 5859 5858 5857 5856 5855 5855 5856 5856 5857 5858 5859 5861 5862 5864 5865 5866 5868 5869 5871 5872 5874
5873 5874 5875 5875 5875 5876 5876 5875 5875 5875 5874 5873 5872 5871 5870 5869 5867 5865 5864 5862 5860 5859 5857 5856 5854 5853 5853 5853 5853 5854 5854 5855 5856 5858 5859 5861 5862 5864 5866 5867 5868 5871 5873
5872 5873 5874 5875 5875 5875 5875 5875 5875 5874 5874 5873 5872 5870 5869 5868 5866 5864 5862 5861 5859 5857 5855 5854 5852 5851 5851 5850 5850 5851 5852 5853 5854 5855 5857 5858 5860 5861 5863 5865 5867 5869 5871
5872 5873 5873 5874 5874 5874 5875 5874 5874 5874 5873 5872 5871 5870 5868 5866 5865 5863 5861 5859 5857 5855 5853 5852 5850 5849 5849 5848 5848 5848 5849 5850 5851 5853 5854 5856 5857 5859 5861 5863 5865 5867 5869
5871 5872 5872 5873 5873 5874 5874 5874 5874 5873 5872 5871 5870 5869 5867 5865 5864 5862 5860 5858 5856 5854 5852 5850 5849 5847 5847 5846 5846 5846 5847 5848 5849 5850 5851 5853 5855 5856 5858 5861 5863 5865 5867
5870 5871 5872 5872 5873 5873 5873 5873 5873 5872 5871 5870 5869 5868 5866 5864 5862 5861 5858 5856 5854 5852 5850 5848 5847 5846 5845 5844 5844 5844 5844 5845 5846 5847 5849 5850 5852 5854 5856 5858 5860 5862 5864
5869 5870 5871 5871 5872 5872 5872 5872 5872 5871 5871 5869 5868 5867 5865 5863 5861 5860 5857 5855 5853 5851 5849 5847 5845 5844 5843 5842 5842 5842 5842 5843 5844 5845 5846 5847 5849 5851 5853 5855 5857 5859 5861
5868 5869 5870 5870 5871 5871 5871 5871 5871 5870 5870 5869 5867 5866 5864 5862 5860 5858 5856 5854 5852 5849 5847 5845 5844 5842 5841 5841 5840 5840 5840 5840 5841 5842 5843 5845 5846 5848 5851 5852 5854 5856 5859
5867 5868 5869 5869 5870 5870 5870 5870 5870 5869 5869 5868 5866 5865 5863 5861 5859 5857 5855 5853 5851 5848 5846 5844 5843 5841 5840 5839 5838 5838 5838 5838 5839 5840 5841 5842 5844 5845 5848 5850 5852 5854 5856
5866 5867 5868 5868 5869 5869 5869 5869 5869 5868 5868 5867 5865 5864 5862 5861 5859 5857 5854 5852 5850 5847 5845 5843 5842 5840 5839 5838 5837 5836 5836 5836 5837 5837 5838 5839 5841 5843 5845 5847 5849 5851 5853
5865 5866 5866 5867 5868 5868 5868 5868 5868 5868 5867 5866 5864 5863 5862 5860 5858 5856 5853 5851 5849 5847 5845 5843 5841 5839 5838 5836 5836 5835 5835 5835 5835 5835 5836 5837 5839 5840 5842 5844 5846 5849 5851
5863 5864 5865 5866 5867 5867 5867 5867 5867 5867 5866 5865 5864 5862 5861 5859 5857 5855 5853 5851 5848 5846 5844 5842 5840 5838 5837 5836 5835 5834 5834 5833 5833 5833 5834 5835 5836 5838 5840 5842 5844 5846 5849
5862 5863 5864 5865 5865 5866 5866 5866 5866 5866 5865 5864 5863 5862 5860 5859 5857 5855 5852 5850 5848 5846 5844 5842 5840 5838 5836 5835 5834 5833 5833 5833 5832 5832 5832 5833 5834 5835 5837 5839 5841 5844 5846
5860 5862 5863 5864 5864 5865 5865 5866 5866 5865 5864 5864 5863 5861 5860 5858 5856 5854 5852 5850 5848 5846 5844 5842 5839 5838 5836 5834 5833 5833 5832 5831 5831 5831 5831 5831 5832 5833 5835 5837 5839 5841 5843
5859 5860 5862 5863 5863 5864 5865 5865 5865 5864 5864 5863 5862 5861 5859 5858 5856 5854 5852 5850 5849 5846 5844 5842 5839 5837 5836 5834 5833 5832 5831 5830 5829 5829 5829 5830 5830 5831 5833 5834 5836 5838 5841
5858 5859 5861 5862 5863 5863 5864 5864 5864 5863 5863 5862 5861 5860 5859 5858 5856 5854 5852 5850 5849 5847 5844 5842 5840 5838 5836 5834 5832 5831 5830 5829 5828 5828 5828 5829 5829 5830 5831 5832 5834 5836 5838
5856 5858 5859 5860 5861 5862 5863 5863 5863 5862 5862 5861 5861 5860 5859 5857 5856 5854 5852 5851 5849 5847 5845 5842 5840 5838 5836 5834 5833 5831 5830 5829 5828 5828 5827 5827 5828 5828 5829 5831 5832 5834 5836